This is the latest recevied weather packets stored in our database for station/object KD5BIG-13. If no packets are shown the sender has not sent any weather packets the latest 10 day(s).
| Time | Temp. | Humidity | Pressure | Rain* | Wind** | Luminosity | Snow |
|---|---|---|---|---|---|---|---|
| 1777700502 | 11.11° C | 97% | 1020.3 hPa | 1.27 mm | - | 0 W/m² | - |
| 1777700200 | 11.11° C | 97% | 1020 hPa | 1.78 mm | - | 0 W/m² | - |
| 1777699897 | 11.11° C | 97% | 1019.2 hPa | 3.05 mm | - | 0 W/m² | - |
| 1777699595 | 11.11° C | 97% | 1019.9 hPa | 3.05 mm | - | 0 W/m² | - |
| 1777699293 | 11.11° C | 97% | 1020.1 hPa | 3.05 mm | - | 0 W/m² | - |
| 1777698991 | 11.11° C | 97% | 1020 hPa | 3.05 mm | - | 0 W/m² | - |
| 1777698689 | 11.11° C | 97% | 1019.8 hPa | 2.29 mm | - | 0 W/m² | - |
| 1777698385 | 11.11° C | 97% | 1019.5 hPa | 1.78 mm | - | 0 W/m² | - |
| 1777698082 | 11.11° C | 97% | 1019.8 hPa | 1.27 mm | - | 0 W/m² | - |
| 1777697778 | 11.11° C | 97% | 1019.7 hPa | 0.51 mm | - | 0 W/m² | - |
| 1777697475 | 11.11° C | 97% | 1019.5 hPa | 0.51 mm | - | 0 W/m² | - |
| 1777697172 | 11.11° C | 97% | 1019.8 hPa | 0.51 mm | - | 0 W/m² | - |
| 1777696869 | 11.11° C | 97% | 1019.9 hPa | 1.27 mm | - | 0 W/m² | - |
| 1777696566 | 11.11° C | 97% | 1019.9 hPa | 1.27 mm | - | 0 W/m² | - |
| 1777696262 | 11.11° C | 97% | 1019.8 hPa | 1.27 mm | - | 0 W/m² | - |
| 1777695957 | 11.11° C | 97% | 1019.8 hPa | 1.27 mm | - | 0 W/m² | - |
| 1777695655 | 11.11° C | 98% | 1020 hPa | 0.51 mm | - | 0 W/m² | - |
| 1777695352 | 11.11° C | 98% | 1019.7 hPa | 0.51 mm | - | 0 W/m² | - |
| 1777695049 | 11.11° C | 98% | 1019.3 hPa | 0.51 mm | - | 0 W/m² | - |
| 1777694745 | 11.11° C | 98% | 1019.3 hPa | 0.51 mm | - | 0 W/m² | - |
| 1777694443 | 11.11° C | 98% | 1019.4 hPa | 1.27 mm | - | 0 W/m² | - |
| 1777694138 | 11.11° C | 98% | 1019.4 hPa | 1.27 mm | - | 0 W/m² | - |
| 1777693836 | 11.11° C | 98% | 1019.5 hPa | 1.78 mm | - | 0 W/m² | - |
| 1777693534 | 11.11° C | 98% | 1019.3 hPa | 1.78 mm | - | 0 W/m² | - |
| 1777693232 | 11.11° C | 98% | 1019.7 hPa | 1.27 mm | - | 0 W/m² | - |
* Rain latest hour (hover to see other rain measurements)
** Current wind speed in m/s (hover to see current wind gust speed)